Location: Moydans
(44.3997°N, 5.5038°E)
Time: 15:45:22
(UTC+02:00)

Nauka - Pass Details

Date: 29 September 2021
Orbit: 417 x 423 km, 51.6° (Epoch: 26 October)

Event Time Altitude Azimuth Distance (km) Brightness Sun altitude
Rises 21:50:20 0° 301° (WNW) 2,366 ? -26.6°
Reaches altitude 10° 21:52:26 10° 302° (WNW) 1,500 ? -27.0°
Enters shadow 21:53:51 23° 304° (NW) 938 ? -27.2°
